• In Austria
  • List of Countries
  • For 7 days
  • Water Temperature
  • Satellite Maps
  • Weather Map
  • News
  • Weather Widgets
  • user-avatar
    Login

    Hourly Weather Bourgoin

    Today, 19 November, Sunday

    Time Temperature Precipitation Wind Pressure Humidity
    00:00 +1°C° 0 mm 1 mps 739 mmHg 92%
    01:00 +1°C° 0 mm 1 mps 739 mmHg 91%
    02:00 +1°C° 0 mm 1 mps 739 mmHg 91%
    03:00 +1°C° 0 mm 1 mps 738 mmHg 90%
    04:00 +2°C° 0 mm 1 mps 738 mmHg 88%
    05:00 +2°C° 0 mm 1 mps 738 mmHg 87%
    06:00 +3°C° 0 mm 1 mps 738 mmHg 85%
    07:00 +4°C° 0.1 mm 1 mps 738 mmHg 82%
    08:00 +5°C° 0.1 mm 1 mps 738 mmHg 79%
    09:00 +6°C° 0.1 mm 1 mps 738 mmHg 75%
    10:00 +7°C° 0 mm 1 mps 738 mmHg 75%
    11:00 +7°C° 0 mm 2 mps 738 mmHg 75%
    12:00 +8°C° 0 mm 2 mps 738 mmHg 75%
    13:00 +7°C° 0 mm 2 mps 738 mmHg 79%
    14:00 +7°C° 0 mm 2 mps 738 mmHg 83%
    15:00 +7°C° 0 mm 2 mps 738 mmHg 87%
    16:00 +6°C° 0 mm 2 mps 738 mmHg 89%
    17:00 +5°C° 0 mm 2 mps 739 mmHg 92%
    18:00 +4°C° 0 mm 2 mps 739 mmHg 95%
    19:00 +3°C° 0 mm 2 mps 739 mmHg 95%
    20:00 +4°C° 0 mm 1 mps 740 mmHg 94%
    21:00 +3°C° 0 mm 1 mps 740 mmHg 94%
    22:00 +3°C° 0 mm 1 mps 740 mmHg 94%
    23:00 +3°C° 0 mm 1 mps 740 mmHg 93%

    Tomorrow, 20 November, Monday

    Time Temperature Precipitation Wind Pressure Humidity
    00:00 +3°C° 0 mm 1 mps 740 mmHg 92%
    01:00 +2°C° 0 mm 1 mps 740 mmHg 92%
    02:00 +2°C° 0 mm 1 mps 740 mmHg 91%
    03:00 +2°C° 0 mm 1 mps 740 mmHg 91%
    04:00 +2°C° 0 mm 1 mps 740 mmHg 90%
    05:00 +2°C° 0 mm 1 mps 740 mmHg 89%
    06:00 +2°C° 0 mm 1 mps 740 mmHg 89%
    07:00 +3°C° 0 mm 1 mps 740 mmHg 83%
    08:00 +4°C° 0 mm 1 mps 740 mmHg 77%
    09:00 +6°C° 0 mm 1 mps 740 mmHg 71%
    10:00 +7°C° 0 mm 1 mps 740 mmHg 66%
    11:00 +9°C° 0 mm 1 mps 739 mmHg 61%
    12:00 +10°C° 0 mm 1 mps 739 mmHg 56%
    13:00 +9°C° 0 mm 1 mps 739 mmHg 60%
    14:00 +9°C° 0 mm 1 mps 739 mmHg 63%
    15:00 +9°C° 0 mm 1 mps 739 mmHg 67%
    16:00 +7°C° 0 mm 1 mps 739 mmHg 71%
    17:00 +6°C° 0 mm 1 mps 739 mmHg 74%
    18:00 +3°C° 0 mm 0 mps 739 mmHg 78%
    19:00 +3°C° 0 mm 0 mps 739 mmHg 77%
    20:00 +4°C° 0 mm 1 mps 739 mmHg 76%
    21:00 +4°C° 0 mm 1 mps 739 mmHg 75%
    22:00 +4°C° 0 mm 1 mps 739 mmHg 74%
    23:00 +4°C° 0 mm 1 mps 739 mmHg 74%

    Day after tomorrow, 21 November, Tuesday

    Time Temperature Precipitation Wind Pressure Humidity
    00:00 +4°C° 0 mm 1 mps 739 mmHg 73%
    01:00 +4°C° 0 mm 1 mps 739 mmHg 72%
    02:00 +4°C° 0 mm 1 mps 739 mmHg 72%
    03:00 +4°C° 0 mm 1 mps 739 mmHg 71%
    04:00 +4°C° 0 mm 1 mps 738 mmHg 71%
    05:00 +4°C° 0 mm 1 mps 738 mmHg 71%
    06:00 +4°C° 0 mm 1 mps 738 mmHg 71%
    07:00 +5°C° 0 mm 1 mps 738 mmHg 67%
    08:00 +6°C° 0 mm 0 mps 738 mmHg 63%
    09:00 +8°C° 0 mm 0 mps 738 mmHg 59%
    10:00 +9°C° 0 mm 0 mps 738 mmHg 56%
    11:00 +11°C° 0 mm 0 mps 737 mmHg 53%
    12:00 +13°C° 0 mm 1 mps 737 mmHg 50%
    13:00 +13°C° 0 mm 1 mps 736 mmHg 55%
    14:00 +11°C° 0 mm 0 mps 736 mmHg 60%
    15:00 +10°C° 0 mm 0 mps 736 mmHg 65%
    16:00 +10°C° 0 mm 1 mps 736 mmHg 68%
    17:00 +8°C° 0 mm 1 mps 736 mmHg 71%
    18:00 +7°C° 0 mm 1 mps 737 mmHg 73%
    19:00 +7°C° 0 mm 1 mps 737 mmHg 73%
    20:00 +7°C° 0 mm 1 mps 737 mmHg 72%
    21:00 +6°C° 0 mm 1 mps 737 mmHg 71%
    22:00 +6°C° 0 mm 1 mps 737 mmHg 70%
    23:00 +6°C° 0 mm 1 mps 737 mmHg 69%

    22 November, Wednesday

    Time Temperature Precipitation Wind Pressure Humidity
    00:00 +6°C° 0 mm 1 mps 737 mmHg 68%
    01:00 +6°C° 0 mm 1 mps 737 mmHg 67%
    02:00 +6°C° 0 mm 1 mps 736 mmHg 66%
    03:00 +5°C° 0 mm 2 mps 736 mmHg 65%
    04:00 +5°C° 0 mm 2 mps 736 mmHg 65%
    05:00 +5°C° 0 mm 2 mps 736 mmHg 64%
    06:00 +5°C° 0 mm 2 mps 736 mmHg 64%
    07:00 +6°C° 0 mm 2 mps 736 mmHg 61%
    08:00 +8°C° 0 mm 2 mps 736 mmHg 59%
    09:00 +9°C° 0 mm 2 mps 736 mmHg 56%
    10:00 +11°C° 0 mm 3 mps 736 mmHg 53%
    11:00 +13°C° 0 mm 3 mps 735 mmHg 51%
    12:00 +15°C° 0 mm 4 mps 735 mmHg 48%
    13:00 +14°C° 0 mm 4 mps 735 mmHg 52%
    14:00 +13°C° 0 mm 3 mps 735 mmHg 57%
    15:00 +12°C° 0 mm 3 mps 735 mmHg 61%
    16:00 +11°C° 0 mm 3 mps 735 mmHg 67%
    17:00 +10°C° 0 mm 3 mps 735 mmHg 73%
    18:00 +8°C° 0 mm 3 mps 735 mmHg 79%
    19:00 +8°C° 0 mm 3 mps 735 mmHg 80%
    20:00 +8°C° 0 mm 3 mps 736 mmHg 81%
    21:00 +8°C° 0 mm 3 mps 736 mmHg 82%
    22:00 +8°C° 0 mm 3 mps 736 mmHg 82%
    23:00 +8°C° 0 mm 3 mps 736 mmHg 81%

    23 November, Thursday

    Time Temperature Precipitation Wind Pressure Humidity
    00:00 +8°C° 0 mm 3 mps 736 mmHg 80%
    01:00 +8°C° 0 mm 3 mps 736 mmHg 80%
    02:00 +8°C° 0 mm 3 mps 736 mmHg 80%
    03:00 +8°C° 0 mm 3 mps 736 mmHg 80%
    04:00 +8°C° 0 mm 3 mps 736 mmHg 80%
    05:00 +7°C° 0 mm 3 mps 737 mmHg 80%
    06:00 +7°C° 0 mm 3 mps 737 mmHg 79%
    07:00 +9°C° 0 mm 3 mps 737 mmHg 76%
    08:00 +10°C° 0 mm 3 mps 737 mmHg 72%
    09:00 +11°C° 0 mm 4 mps 738 mmHg 68%
    10:00 +12°C° 0 mm 4 mps 737 mmHg 65%
    11:00 +14°C° 0 mm 4 mps 737 mmHg 63%
    12:00 +15°C° 0 mm 5 mps 737 mmHg 60%
    13:00 +14°C° 0 mm 4 mps 737 mmHg 64%
    14:00 +14°C° 0 mm 4 mps 737 mmHg 67%
    15:00 +13°C° 0 mm 3 mps 737 mmHg 71%
    16:00 +12°C° 0 mm 3 mps 737 mmHg 76%
    17:00 +10°C° 0 mm 3 mps 738 mmHg 81%
    18:00 +9°C° 0 mm 2 mps 738 mmHg 86%
    19:00 +9°C° 0 mm 2 mps 738 mmHg 86%
    20:00 +8°C° 0 mm 2 mps 739 mmHg 85%
    21:00 +8°C° 0 mm 2 mps 739 mmHg 85%
    22:00 +8°C° 0 mm 2 mps 739 mmHg 84%
    23:00 +8°C° 0 mm 2 mps 739 mmHg 83%

    24 November, Friday

    Time Temperature Precipitation Wind Pressure Humidity
    00:00 +7°C° 0 mm 2 mps 739 mmHg 83%
    01:00 +7°C° 0 mm 2 mps 739 mmHg 81%
    02:00 +7°C° 0 mm 2 mps 739 mmHg 80%
    03:00 +7°C° 0 mm 2 mps 738 mmHg 79%
    04:00 +7°C° 0 mm 2 mps 738 mmHg 77%
    05:00 +6°C° 0 mm 2 mps 738 mmHg 76%
    06:00 +6°C° 0 mm 2 mps 738 mmHg 74%
    07:00 +8°C° 0 mm 3 mps 738 mmHg 69%
    08:00 +9°C° 0 mm 3 mps 738 mmHg 64%
    09:00 +10°C° 0 mm 4 mps 738 mmHg 59%
    10:00 +12°C° 0 mm 4 mps 738 mmHg 55%
    11:00 +13°C° 0 mm 5 mps 737 mmHg 51%
    12:00 +15°C° 0 mm 6 mps 737 mmHg 47%
    13:00 +14°C° 0 mm 5 mps 737 mmHg 51%
    14:00 +13°C° 0 mm 5 mps 736 mmHg 55%
    15:00 +12°C° 0 mm 4 mps 736 mmHg 59%
    16:00 +12°C° 0 mm 4 mps 736 mmHg 61%
    17:00 +11°C° 0 mm 4 mps 736 mmHg 64%
    18:00 +10°C° 0 mm 4 mps 737 mmHg 66%
    19:00 +10°C° 0 mm 4 mps 737 mmHg 66%
    20:00 +8°C° 0 mm 4 mps 737 mmHg 65%
    21:00 +8°C° 0 mm 4 mps 737 mmHg 64%
    22:00 +8°C° 0 mm 4 mps 736 mmHg 62%
    23:00 +8°C° 0 mm 4 mps 736 mmHg 59%
    Show more